Skip Page Navigation
NASA JPL Caltech
NASA Logo - Jet Propulsion Laboratory + View the NASA Portal
+ Center for Near-Earth Object Studies
JPL Home Earth Solar System Stars & Galaxies Technology
JPL Solar System Dynamics
BODIES ORBITS EPHEMERIDES TOOLS PHYSICAL DATA DISCOVERY FAQ SITE MAP
JPL Small-Body Database Browser
Search: [ help ]  
118497 (2000 DB34)
Classification: Main-belt Asteroid          SPK-ID: 2118497
Ephemeris | Orbit Diagram | Orbital Elements | Mission Design | Physical Parameters | Discovery Circumstances | Close-Approach Data ]

[ show orbit diagram ]
Orbital Elements at Epoch 2459200.5 (2020-Dec-17.0) TDB
Reference: JPL 19 (heliocentric ecliptic J2000)
 Element Value Uncertainty (1-sigma)   Units 
e .1962984236997456 4.0851e-08  
a 2.368696641020605 1.0773e-08 au
q 1.903725224165378 9.3913e-08 au
i 5.657179414621897 3.8475e-06 deg
node 167.5125717714544 4.3536e-05 deg
peri 84.61589738871005 4.4672e-05 deg
M 180.9606288795168 1.041e-05 deg
tp 2459862.729672251724
(2022-Oct-10.22967225)
4.0738e-05 TDB
period 1331.565680322846
3.65
9.0843e-06
2.487e-08
d
yr
n .2703584249127808 1.8445e-09 deg/d
Q 2.833668057875832 1.2888e-08 au
  Orbit Determination Parameters
   # obs. used (total)      552  
   data-arc span      7626 days (20.88 yr)  
   first obs. used      2000-02-29  
   last obs. used      2021-01-15  
   planetary ephem.      DE441  
   SB-pert. ephem.      SB441-N16  
   condition code      0  
   norm. resid. RMS      .52994  
   source      ORB  
   producer      Otto Matic  
   solution date      2021-Apr-13 16:57:33  

Additional Information
 Earth MOID = .898235 au 
 Jupiter MOID = 2.22599 au 
 T_jup = 3.513 
[ show covariance matrix ]

Ephemeris | Orbit Diagram | Orbital Elements | Mission Design | Physical Parameters | Discovery Circumstances | Close-Approach Data ]

Physical Parameter Table
Parameter Symbol Value Units Sigma Reference Notes
absolute magnitude H 16.4   n/a MPO436569  

118497 (2000 DB34)          Discovered 2000-Feb-29 by LINEAR at Socorro
Reference: 20051116/Numbers.arcLast Updated: 2005-11-21

[ show close-approach data ]
Alternate Designations
 2000 DB34 = 2001 RA123 
Ephemeris | Orbit Diagram | Orbital Elements | Mission Design | Physical Parameters | Discovery Circumstances | Close-Approach Data ]
ABOUT SSD CREDITS/AWARDS PRIVACY/COPYRIGHT GLOSSARY LINKS
FirstGov 2021-Apr-21 22:08 UT
(server date/time)  
NASA Home Page
Site Manager:   Ryan S. Park
Webmaster  Alan B. Chamberlin